Flag for Dominican Republic Weather past 2 weeks in Punta Cana, Dominican Republic

Now
77 °F

Broken clouds.


Feels Like: 79 °F
Forecast: 74 / 81 °F
Wind: 12 mph from East

Location: Punta Cana

Current Time: Feb 1, 2015 at 10:11:14 AM

Latest Report: Feb 1, 2015 at 9:00 AM


Visibility: N/A

Pressure: 30.09 "Hg

Humidity: 79%

Dew point: 70 °F

Location of Punta CanaLocation

Historic Weather in Punta Cana — Graph

°F

Punta Cana temperature yesterday

Maximum temperature yesterday: 84 °F (at 3:00 PM)
Minimum temperature yesterday: 73 °F (at 4:00 AM)
Average temperature yesterday: 77 °F

Past Weeks' High & Low Weather Summary

 TemperatureHumidityPressure
High99 °F (Jan 17, 4:00 PM)100% (Jan 19, 4:00 AM)30.09 "Hg (Jan 19, 4:00 AM)
Low63 °F (Jan 21, 5:00 AM)44% (Jan 17, 4:00 PM)29.92 "Hg (Jan 28, 5:00 PM)
Average77 °F80%30.01 "Hg
* Reported Jan 17 9:00 AM — Feb 1 9:00 AM, Punta Cana, Weather by CustomWeather, © 2014

Note: Actual official high and low records may vary slightly from our data, if they occured in-between our weather recording intervals... More about our weather records

Advertising

Punta Cana weather history for previous 24 hours

 ConditionsComfort  
Time TempWeatherWind HumidityBarometerVisibility
9:00 AM
Feb 1
77 °FBroken clouds.12 mph79%30.09 "HgN/A
8:00 AM75 °FPartly sunny.9 mph83%30.07 "HgN/A
7:00 AM73 °FPassing clouds.9 mph83%30.04 "HgN/A
6:00 AM70 °FPassing clouds.7 mph94%30.04 "HgN/A
5:00 AM72 °FPassing clouds.5 mph88%30.04 "HgN/A
4:00 AM72 °FLight rain. Passing clouds.16 mph94%30.04 "Hg5 mi
3:00 AM72 °FMild.43 mph94%30.04 "HgN/A
2:00 AM70 °FLight rain. Passing clouds.12 mph94%30.04 "Hg4 mi
1:00 AM75 °FRain. Passing clouds.7 mph89%30.07 "Hg4 mi
12:00 AM75 °FLight rain. Passing clouds.9 mph89%30.07 "Hg5 mi
11:00 PM
Jan 31
73 °FPartly cloudy.9 mph94%30.07 "HgN/A
10:00 PM73 °FPartly cloudy.9 mph94%30.07 "HgN/A
9:00 PM75 °FPartly cloudy.10 mph89%30.04 "HgN/A
8:00 PM75 °FLight rain. Passing clouds.8 mph89%30.04 "Hg5 mi
7:00 PM77 °FRain. Passing clouds.9 mph83%30.01 "Hg5 mi
6:00 PM79 °FScattered clouds.7 mph79%29.98 "HgN/A
5:00 PM82 °FScattered clouds.8 mph66%29.98 "HgN/A
4:00 PM81 °FScattered clouds.8 mph74%29.98 "HgN/A
3:00 PM84 °FScattered clouds.8 mph66%29.98 "HgN/A
2:00 PM82 °FScattered clouds.9 mph70%30.01 "HgN/A
1:00 PM82 °FScattered clouds.8 mph66%30.01 "HgN/A
12:00 PM82 °FScattered clouds.7 mph70%30.04 "HgN/A
11:00 AM81 °FBroken clouds.5 mph70%30.04 "HgN/A
10:00 AM81 °FScattered clouds.6 mph74%30.04 "HgN/A
Weather by CustomWeather, © 2014

See weather overviewHow to use our weather pages